Location: The Saddle
(36.8333°N, 80.3417°W)
Time: 08:17:48
(UTC-04:00)

Vanguard 2 Rocket - Pass Details

Date: 30 January 2023
Orbit: 555 x 3316 km, 32.9° (Epoch: 27 March)

Event Time Altitude Azimuth Distance (km) Brightness Sun altitude
Rises 15:48:32 0° 270° (W) 2,879 10.3 19.0°
Reaches altitude 10° 15:50:37 10° 261° (W) 2,108 9.9 18.7°
Maximum altitude 15:55:02 39° 192° (SSW) 1,276 8.6 18.0°
Drops below altitude 10° 16:01:49 10° 127° (SE) 3,242 9.6 16.9°
Sets 16:05:47 0° 121° (ESE) 4,680 10.3 16.3°
